Regional Weather Roundup
Issued by NWS Wilmington, NC

Home | Current Version | Previous Version | Text Only | Print | Product List | Glossary On
Versions: 1 2 3 4 5 6 7 8 9 10 11 12 13 14 15 16 17 18 19 20 21 22 23 24 25 26 27
000
ASUS42 KILM 241813
RWRILM
RWRILM
REGIONAL HOURLY WEATHER ROUNDUP
NATIONAL WEATHER SERVICE WILMINGTON NC
200 PM EDT FRI MAR 24 2017

NOTE: "FAIR" INDICATES FEW OR NO CLOUDS BELOW 12,000 FEET WITH NO
SIGNIFICANT WEATHER AND/OR OBSTRUCTIONS TO VISIBILITY.

...............WFO WILMINGTON COUNTY WARNING AREA...............

......COASTAL NC AND SC COUNTIES......

CITY           SKY/WX    TMP DP  RH WIND       PRES   REMARKS
WILMINGTON     MOSUNNY   69  47  45 S10G20    30.47F
N MYRTLE BEACH SUNNY     67  50  54 SE8       30.48F
MYRTLE BEACH   MOSUNNY   68  50  52 S12       30.49F

......INLAND NC AND SC COUNTIES.......

CITY           SKY/WX    TMP DP  RH WIND       PRES   REMARKS
LUMBERTON      MOSUNNY   70  44  39 S8G17     30.44F
ELIZABETHTOWN  SUNNY     70  42  36 S8        30.45F
WHITEVILLE     MOSUNNY   71  44  37 S7        30.45F
FLORENCE       MOSUNNY   73  45  36 S15G21    30.44F
DARLINGTON     MOSUNNY   71  47  42 S15       30.44F
KINGSTREE      FAIR      72  41  33 SE10      30.44F
HARTSVILLE     FAIR      70  45  40 S10G16    30.44F
BENNETTSVILLE  FAIR      72  50  46 S5G10     30.44F
CONWAY         FAIR      70  45  40 S5        30.47F
GEORGETOWN     PTSUNNY   68  50  52 E8        30.48F
MARION         FAIR      72  43  35 S7G18     30.44F

....................REST OF NORTH CAROLINA......................

.........EASTERN NC.........

CITY           SKY/WX    TMP DP  RH WIND       PRES   REMARKS
CAPE HATTERAS  SUNNY     66  49  54 VRB7      30.49F
JACKSONVILLE   MOSUNNY   72  44  36 S13       30.46F
MOREHEAD CITY  SUNNY     68  48  48 SW13      30.49F
KENANSVILLE    MOSUNNY   72  43  35 SW13G18   30.46F
NEW BERN       MOSUNNY   71  45  39 W12G22    30.47F
ELIZABETH CITY SUNNY     65  40  39 SW17G28   30.44F

.........CENTRAL NC.........

CITY           SKY/WX    TMP DP  RH WIND       PRES   REMARKS
RALEIGH DURHAM PTSUNNY   67  45  45 SW20      30.44F
ROCKY MOUNT    SUNNY     68  46  45 SW12G26   30.43F
ROANOKE RAPIDS NOT AVBL
FAYETTEVILLE   MOSUNNY   71  45  39 SW12G20   30.44F
HOFFMAN        PTSUNNY   67  46  46 SW13      30.44F

.........WESTERN NC.........

CITY           SKY/WX    TMP DP  RH WIND       PRES   REMARKS
CHARLOTTE      MOSUNNY   68  44  42 S15G22    30.44F
GREENSBORO     MOSUNNY   62  44  51 SW13      30.42F
HICKORY        NOT AVBL
BOONE          NOT AVBL
ASHEVILLE      NOT AVBL

.....................REST OF SOUTH CAROLINA.....................

.........EASTERN SC.........

CITY           SKY/WX    TMP DP  RH WIND       PRES   REMARKS
CHARLESTON     MOSUNNY   75  46  35 S12G20    30.45F
BEAUFORT MCAS  MOSUNNY   76  54  46 S10       30.44F
HILTON HEAD    MOSUNNY   70  54  56 NE9       30.46F

.........CENTRAL SC.........

CITY           SKY/WX    TMP DP  RH WIND       PRES   REMARKS
COLUMBIA       MOSUNNY   74  44  34 S12G20    30.43F
ORANGEBURG     PTSUNNY   72  46  39 VRB7G17   30.44F
SUMTER SHAW    MOSUNNY   73  44  35 S14       30.42F

.........WESTERN SC.........

CITY           SKY/WX    TMP DP  RH WIND       PRES   REMARKS
GREENVILLE     NOT AVBL
ROCK HILL      MOSUNNY   67  46  47 SW13G22   30.44F
ANDERSON       CLOUDY    64  44  48 W6        30.43F
CLEMSON        NOT AVBL
GREENWOOD      PTSUNNY   68  46  45 SE10      30.44F


...................COASTAL AND OFFSHORE REPORTS..................

................LOCAL PIERS AND NC RESERVE................


STATION/POSITION TIME  SKY/WX   TEMP    WIND        PRES    VSBY
                                AIR SEA DIR/SP/G
                 (UTC)          (F)     (DEG/KT/KT) (MB)    (MI)
JOHNY MRCER PIER 1742            56 57   90/  4/  5 1031.3F
NC RESRV MASNBRO 1645            62     100/  3     1032.0
OCEAN CREST PIER NOT AVBL
SPRINGMAID  PIER 1748                               1031.6F


................COASTAL AND OFFSHORE BUOYS................


STATION/POSITION TIME  SKY/WX   TEMP    WIND        PRES    VSBY
                                AIR SEA DIR/SP/G
                 (UTC)          (F)     (DEG/KT/KT) (MB)    (MI)
DIMNDSHOAL 41025 1750            64 75  210/ 14/ 17 1032.9F
WVE H/P(F/S)=  4/10 SWL H/P/D(F/S/D)=  3/ 80/10

CAPE LOOKOUT     1800            65     190/ 11/ 14 1032.1F
ONSLOW BAY 41036 NOT AVBL
ONSLOW BAY 41064 1708            65     170/  8/ 12 1033.2F
ONSLOW BAY 41159 1743               69                N/A
WVE H/P(F/S)=  3/ 8

MASNBO INL 41110 1759               58                N/A
WVE H/P(F/S)=  3/ 7

WILM HARBR 41108 1747               58                N/A
WVE H/P(F/S)=  2/10

27SE WRITB 41037 1708            64 62  160/  8/ 10 1032.4F
FRYING PAN 41013 1800            67 72  130/ 10/ 14 1031.8
SUNST NRSH 41024 NOT AVBL
CAPRS NRSH 41029 1708            60      60/ 10/ 14 1032.0F
EDISTO     41004 1750            69 71  140/ 12/ 16 1030.9F
WVE H/P(F/S)=  5/ 8 SWL H/P/D(F/S/D)=  3/100/ 8



..........OFFSHORE BUOYS BEYOND 100 NM OFFSHORE...........
.....IN A TRIANGLE---HAT TO BERMUDA TO BAHAMAS TO HAT.....


STATION/POSITION TIME  SKY/WX   TEMP    WIND        PRES    VSBY
                                AIR SEA DIR/SP/G
                 (UTC)          (F)     (DEG/KT/KT) (MB)    (MI)
150E HAT   41001 NOT AVBL
W BERMUDA  41048 1750            60 68   60/ 12/ 16 1032.5F
WVE H/P(F/S)=  7/11 SWL H/P/D(F/S/D)=  7/ 10/11

ATLANTIC S 41049 1750            67 72   50/ 25/ 31 1025.2F
WVE H/P(F/S)= 14/11

E BAHAMAS  41046 NOT AVBL
NE BAHAMAS 41047 1800            68 72   50/ 23/ 29 1026.5
120E CANVRL41010 NOT AVBL

END




USA.gov is the U.S. government's official web portal to all federal, state and local government web resources and services.